Theta_e
322 332 344 345 346 347 348 346 345 344 343 343 342 342 341 341 341 340 339 338 337 337 337 337 337 337 340 342 339 339 338 339 338 338 339 340 340 339 338 338 337 335 335
326 336 342 346 346 348 349 347 345 344 343 343 343 344 344 343 343 343 342 341 340 339 339 339 338 337 338 339 341 339 339 338 338 338 338 338 338 339 340 339 340 338 338
333 337 341 345 347 349 349 348 346 345 344 345 346 345 344 343 344 344 344 343 342 342 342 342 342 342 339 339 339 341 339 338 338 338 337 335 335 336 336 336 338 337 340
335 338 341 343 346 347 348 347 345 345 345 345 345 343 341 339 341 341 341 339 340 341 341 342 341 340 339 340 340 341 341 340 339 338 336 334 332 333 336 337 336 337 339
334 339 342 343 346 346 346 346 346 346 346 344 343 340 338 337 337 335 333 332 333 334 334 334 333 333 332 333 334 335 335 333 332 333 336 335 335 333 337 338 338 338 340
330 334 340 343 345 346 346 346 344 343 342 340 338 336 332 330 330 327 327 327 327 328 327 327 326 326 325 325 326 327 327 325 324 327 328 331 334 335 339 338 338 340 340
327 331 336 339 341 342 342 341 339 337 336 335 332 329 326 325 325 323 323 323 323 323 323 323 322 322 322 322 322 320 319 318 316 317 320 324 328 333 337 338 338 339 339
325 326 332 332 336 338 338 337 335 333 331 329 326 325 323 322 320 320 321 320 320 320 321 320 319 318 317 316 316 315 315 313 309 309 311 313 315 323 331 333 335 337 337
321 322 324 327 329 329 331 331 330 328 326 324 323 321 319 318 317 317 318 318 318 318 319 317 317 315 313 312 312 312 312 310 306 307 306 308 313 317 320 322 327 331 333
313 316 318 319 321 321 322 323 323 323 322 322 320 319 317 316 314 315 314 315 316 315 315 315 314 312 310 310 309 309 308 305 305 306 307 307 313 316 319 321 321 323 326
307 310 312 313 314 314 315 316 318 319 319 318 317 315 308 306 307 310 313 312 313 313 313 313 311 309 306 305 306 307 304 305 304 305 306 307 312 316 318 319 320 321 322
302 304 308 309 309 309 310 312 312 313 311 309 308 305 304 304 304 306 308 309 309 309 310 309 307 305 302 304 304 303 304 303 304 304 305 307 311 314 317 318 319 320 321
302 301 302 305 305 304 306 306 305 306 304 303 303 303 303 303 303 302 302 302 303 302 302 302 302 303 302 302 302 302 302 302 303 303 303 306 309 312 315 317 318 319 320
298 299 300 302 301 300 302 302 302 302 302 301 302 302 302 301 301 300 301 301 301 302 301 302 302 302 301 300 300 301 300 301 302 302 302 303 306 310 313 316 317 318 319
297 298 299 300 299 299 299 300 300 301 301 302 301 302 301 300 300 300 300 300 300 301 301 301 301 300 300 300 299 299 299 300 300 301 302 301 304 308 311 313 315 316 317
298 298 298 298 300 298 298 299 299 300 300 301 300 301 301 300 300 300 299 299 300 300 301 301 300 299 299 298 298 298 298 299 299 299 300 302 302 304 307 310 312 313 314
298 298 297 298 298 298 298 298 298 299 298 299 299 301 301 300 300 299 299 298 299 300 299 299 299 299 299 297 297 297 298 298 298 298 299 300 301 301 304 306 307 309 310
298 296 297 298 297 297 297 297 297 298 298 298 298 299 300 300 300 299 298 298 299 299 298 298 297 297 297 296 296 296 296 296 296 297 298 299 300 301 300 302 303 304 305
296 296 296 298 296 296 296 296 297 297 297 297 297 299 300 300 299 299 298 298 298 297 297 297 296 295 294 294 294 295 296 295 296 296 297 297 299 298 299 298 299 299 301
296 296 297 297 297 296 295 295 296 296 296 296 297 298 299 300 299 298 297 297 297 296 295 295 295 294 294 293 291 293 294 295 296 296 297 297 296 297 298 298 298 297 298
295 295 296 296 296 295 294 293 294 294 295 295 296 298 299 300 298 297 297 296 296 296 295 294 294 293 292 292 291 293 294 294 296 296 295 295 296 297 297 296 296 296 295
294 295 296 296 296 296 296 296 295 294 294 296 296 297 299 299 298 297 296 296 295 294 293 293 292 291 291 291 289 289 289 292 294 293 295 294 295 296 295 295 295 294 294
295 295 296 296 296 296 297 294 293 294 294 294 295 296 297 298 298 298 296 296 295 295 293 292 292 291 290 290 290 289 288 287 287 292 292 293 294 294 294 294 293 293 292
295 296 297 296 296 296 296 295 294 294 293 294 295 296 297 298 297 297 296 295 294 294 293 292 292 291 290 288 289 291 290 289 287 286 291 293 293 292 293 293 292 292 291
295 296 296 296 296 296 295 296 295 295 296 294 294 295 296 296 297 296 296 295 294 293 293 292 291 290 290 289 288 288 288 289 289 286 284 287 290 292 292 291 291 291 291
294 295 296 295 295 295 295 295 295 294 293 293 293 294 294 295 295 296 295 294 294 293 292 291 291 290 289 289 289 288 288 287 287 286 285 286 286 289 290 290 290 290 290
Wind_Speed
7 11 14 16 16 16 18 16 14 13 12 10 9 8 7 7 7 7 6 5 4 3 3 4 5 5 6 5 3 3 4 3 4 5 5 5 5 4 3 3 4 5 5
11 12 12 17 16 16 17 16 15 13 12 10 9 7 7 8 7 7 7 5 4 3 2 2 3 5 6 6 5 3 3 3 4 5 6 5 5 6 6 7 5 7 8
15 12 12 15 14 15 17 16 15 14 12 11 12 11 10 7 9 6 8 5 3 3 2 5 4 5 7 6 6 7 4 3 3 4 5 3 3 5 7 9 8 11 10
12 11 14 14 14 14 15 16 15 14 13 13 12 11 11 6 8 10 9 7 9 9 9 10 10 10 10 10 9 9 9 10 10 6 3 3 4 6 8 9 10 10 12
9 6 12 16 18 18 16 16 16 15 15 14 11 12 9 9 10 10 10 10 9 9 9 10 10 11 9 9 6 8 9 8 8 6 5 5 4 6 10 11 10 10 8
8 5 9 15 15 14 13 13 12 12 12 13 11 12 11 11 12 10 10 10 9 9 9 9 9 9 8 9 8 9 10 8 5 5 5 5 5 8 11 12 12 10 9
7 4 6 10 12 10 10 11 11 10 11 12 12 12 12 12 12 10 10 9 9 9 9 9 9 9 9 9 9 9 9 9 6 5 5 5 6 10 11 13 13 13 13
10 4 4 7 9 11 12 13 13 13 13 13 13 13 13 12 11 10 10 9 9 9 9 9 8 9 8 8 8 8 8 9 5 5 5 5 9 11 12 12 13 13 14
9 8 5 5 7 10 11 11 12 13 13 13 13 13 13 12 11 10 11 9 9 9 9 8 8 8 8 7 7 8 8 8 4 3 5 4 10 11 11 12 13 14 15
7 8 8 7 7 6 6 10 11 11 12 13 13 13 11 12 11 11 9 9 9 8 7 7 8 7 7 6 6 6 6 4 4 3 3 3 9 10 10 11 12 13 14
7 9 9 9 8 8 7 7 10 12 12 13 12 13 10 5 7 8 9 9 9 8 7 6 6 6 6 5 5 5 4 2 3 3 3 6 9 10 10 11 12 13 14
13 11 10 10 10 8 7 7 7 7 6 6 7 8 6 6 5 6 8 9 10 9 7 5 5 6 4 2 2 3 2 3 2 3 3 8 10 10 11 11 11 12 13
12 9 12 10 9 10 7 6 4 4 4 5 8 7 7 5 4 3 3 3 3 6 3 3 3 2 3 3 3 3 3 4 3 3 4 8 9 10 10 10 11 12 13
14 13 11 11 10 9 6 6 6 5 5 5 6 8 6 4 4 4 3 4 3 2 3 2 2 3 4 4 4 4 4 3 3 3 3 6 8 8 9 10 11 11 12
14 13 14 12 11 10 9 7 7 6 6 6 7 7 6 6 5 5 4 3 3 2 1 1 2 3 4 4 4 4 5 5 5 3 3 6 7 8 9 10 12 13 14
15 15 14 14 12 11 9 9 8 7 7 7 6 7 8 6 6 5 5 4 3 2 2 1 1 2 2 4 5 4 5 4 4 5 3 3 6 7 9 11 13 14 15
16 14 16 16 13 13 12 10 7 7 6 6 6 7 8 7 7 7 5 4 3 3 3 1 1 1 1 3 5 5 5 5 4 4 3 3 4 6 8 10 12 13 15
13 17 15 14 14 13 12 9 7 7 6 6 6 6 8 8 8 7 5 4 4 3 2 2 2 3 3 3 5 5 5 4 4 3 2 2 2 3 4 9 10 14 16
17 16 15 16 16 15 11 8 8 9 7 6 6 6 8 9 9 7 6 5 5 4 2 2 2 2 2 4 6 6 5 4 2 2 1 2 3 4 3 6 8 11 18
16 16 16 15 16 15 9 6 5 5 4 5 6 7 9 7 9 7 6 6 5 4 3 2 2 1 1 4 6 6 5 2 1 1 1 2 4 3 3 4 6 8 17
16 17 18 19 17 13 9 9 6 7 6 5 6 8 9 8 9 8 6 7 5 5 4 3 2 1 2 5 3 2 2 3 2 1 4 3 3 2 3 4 5 7 8
21 21 20 20 19 16 12 11 5 7 4 5 6 6 8 9 9 8 7 7 7 5 5 4 3 2 2 4 3 1 4 3 3 4 4 3 1 1 2 6 9 9 9
22 25 22 21 21 20 17 10 5 5 4 4 5 5 7 9 9 8 8 8 7 6 5 5 4 3 3 2 3 2 0 2 5 2 3 3 1 2 6 6 8 10 11
20 17 21 22 21 19 19 16 16 13 10 7 8 6 7 9 9 8 8 9 8 5 6 5 5 4 4 3 2 2 2 0 2 5 3 2 3 7 9 8 9 11 11
15 17 17 19 20 21 20 19 15 13 9 5 5 10 9 7 9 9 9 9 8 6 6 6 6 5 3 3 2 2 2 2 4 5 6 3 8 7 7 7 11 10 10
11 14 15 18 19 19 21 20 20 17 13 9 9 9 8 7 7 8 9 8 8 7 7 6 6 6 5 4 3 3 3 2 2 3 5 7 11 6 8 10 9 8 7
Wind_Direction
209 178 174 169 169 175 170 165 159 157 157 155 155 161 161 157 159 162 163 156 143 119 99 85 76 69 62 47 84 78 53 56 56 45 26 16 9 353 350 353 341 328 315
153 178 186 167 172 175 164 161 160 161 163 162 173 182 191 188 181 183 183 165 159 143 126 109 97 86 78 58 55 47 44 52 46 41 40 32 23 2 346 341 312 313 298
158 171 190 164 170 173 162 159 162 166 167 152 136 119 107 103 114 113 169 137 160 184 118 68 83 65 69 61 47 36 51 44 43 28 34 11 359 347 338 331 321 309 298
162 173 172 162 161 157 158 157 162 162 159 151 146 133 113 117 94 80 85 81 64 64 71 66 62 61 48 50 45 38 35 41 26 9 357 349 335 332 327 326 325 318 319
167 146 165 170 170 161 165 167 169 166 158 142 137 118 120 119 108 101 97 92 82 74 67 57 50 51 45 41 33 34 32 26 27 16 3 338 321 313 316 312 314 311 311
160 142 148 155 152 152 155 156 143 142 134 126 124 130 131 121 116 107 101 96 90 85 81 78 74 69 60 52 49 44 38 27 19 6 349 336 320 311 302 296 296 296 297
153 154 151 146 141 142 156 161 156 143 140 140 145 141 127 123 116 110 105 98 93 87 82 81 78 71 62 58 50 39 36 32 21 17 359 335 332 317 307 303 302 302 299
156 158 138 139 148 160 168 165 161 153 147 144 143 138 127 126 118 113 108 101 97 96 95 83 78 70 61 50 45 38 32 31 23 3 350 341 339 328 315 310 304 308 308
156 154 143 141 151 151 152 151 150 151 147 145 142 136 126 125 117 114 110 104 104 102 99 96 88 78 68 50 42 33 30 32 20 4 346 344 334 327 321 315 311 309 301
163 162 162 157 152 141 139 142 141 142 144 142 136 125 122 118 117 109 92 102 102 98 96 96 90 75 62 51 43 35 25 23 16 349 344 334 327 322 324 318 315 304 301
189 183 175 167 168 156 151 149 141 139 139 133 130 125 118 121 116 106 104 107 100 94 93 90 82 73 68 44 24 29 21 17 347 343 330 326 326 320 320 319 318 315 310
195 192 183 178 176 164 163 154 149 141 134 139 138 136 134 130 131 114 96 97 91 88 85 74 64 62 62 45 353 358 5 347 336 337 326 333 329 327 327 326 323 320 317
189 191 189 180 178 169 163 159 153 148 151 148 146 144 138 124 118 111 107 92 89 82 84 56 30 22 33 16 355 345 341 345 340 336 345 338 334 332 332 333 332 329 325
186 191 183 183 178 177 160 163 160 166 165 164 158 150 141 138 135 128 122 110 99 87 98 74 44 360 11 357 342 329 335 348 339 332 337 335 336 341 347 347 344 342 339
197 192 189 179 182 178 169 165 169 178 174 175 164 163 154 148 145 138 134 129 120 127 111 78 51 8 342 327 338 330 330 341 334 329 323 331 343 357 0 356 352 348 344
198 196 183 185 185 174 175 175 175 176 178 179 178 171 160 150 152 150 146 141 136 146 132 68 36 7 334 323 327 331 321 321 317 321 324 336 353 9 5 3 358 351 346
202 185 187 184 181 182 185 177 176 180 178 176 182 172 160 157 160 155 150 149 146 139 125 102 349 322 337 324 326 321 316 319 319 326 338 341 358 14 10 360 354 353 347
191 189 183 182 184 186 185 177 176 179 174 181 178 171 168 162 160 155 151 150 146 139 131 101 27 338 343 347 324 309 299 310 319 317 352 334 1 5 345 354 4 358 352
195 188 182 180 181 185 182 177 177 176 178 179 172 176 173 165 164 159 154 152 150 139 122 101 90 3 340 338 321 305 307 309 314 322 327 330 10 345 354 10 4 353 348
195 191 185 182 180 180 172 159 158 169 181 174 179 179 173 171 162 161 151 151 151 141 139 132 113 59 6 337 310 304 314 314 243 298 331 342 352 351 356 10 345 343 340
191 188 189 181 182 169 164 169 175 188 185 183 189 181 175 171 166 162 159 151 158 159 147 137 125 85 53 355 319 325 313 344 55 26 326 343 2 6 357 350 333 328 325
190 190 190 191 177 180 178 177 169 167 178 180 178 180 181 175 170 165 159 163 163 148 151 144 152 142 86 31 41 334 352 334 352 15 12 1 350 256 315 319 317 317 316
199 192 190 187 180 180 177 154 108 112 96 149 178 180 190 180 173 166 167 160 164 166 162 159 154 149 130 80 62 70 12 295 325 328 332 324 312 234 309 317 312 306 310
207 197 191 186 180 179 173 174 174 182 175 187 174 175 177 179 175 169 169 167 165 167 161 161 161 144 139 133 132 74 50 137 273 309 316 321 277 299 308 307 305 303 297
195 196 193 185 182 178 178 180 180 183 178 147 149 165 175 176 178 175 173 167 167 172 163 163 158 158 152 138 155 149 163 220 228 240 290 294 300 290 293 290 299 292 291
187 187 188 186 184 178 178 180 184 180 165 155 163 172 176 175 178 183 179 169 166 167 169 171 168 166 162 154 154 173 197 227 211 240 272 307 298 287 293 280 268 269 276